TimeCDT,TemperatureF,Dew PointF,Humidity,Sea Level PressureIn,VisibilityMPH,Wind Direction,Wind SpeedMPH,Gust SpeedMPH,PrecipitationIn,Events,Conditions,WindDirDegrees,DateUTC
12:52 AM,21.0,16.0,81,30.17,10.0,West,5.8,-,N/A,,Clear,280,2013-03-25 05:52:00
1:52 AM,21.9,16.0,78,30.16,10.0,WNW,8.1,-,N/A,,Clear,290,2013-03-25 06:52:00
2:52 AM,21.9,15.1,75,30.17,10.0,West,9.2,-,N/A,,Clear,280,2013-03-25 07:52:00
3:52 AM,21.9,15.1,75,30.18,10.0,WNW,11.5,-,N/A,,Clear,300,2013-03-25 08:52:00
4:52 AM,21.9,15.1,75,30.17,10.0,NW,15.0,-,N/A,,Clear,310,2013-03-25 09:52:00
5:52 AM,21.9,15.1,75,30.18,10.0,WNW,15.0,-,N/A,,Partly Cloudy,300,2013-03-25 10:52:00
6:40 AM,23.0,15.8,74,30.15,10.0,WNW,15.0,-,N/A,,Mostly Cloudy,300,2013-03-25 11:40:00
6:52 AM,23.0,16.0,74,30.19,10.0,WNW,15.0,-,N/A,,Mostly Cloudy,300,2013-03-25 11:52:00
7:36 AM,24.8,17.6,74,30.18,10.0,NW,16.1,23.0,N/A,,Mostly Cloudy,310,2013-03-25 12:36:00
7:52 AM,24.1,18.0,77,30.21,10.0,NW,12.7,-,N/A,,Mostly Cloudy,310,2013-03-25 12:52:00
8:10 AM,24.8,17.6,74,30.19,10.0,NW,13.8,-,N/A,,Mostly Cloudy,310,2013-03-25 13:10:00
8:52 AM,26.1,19.9,78,30.24,10.0,NW,13.8,-,N/A,,Overcast,320,2013-03-25 13:52:00
9:52 AM,28.0,21.0,75,30.26,10.0,NW,19.6,27.6,N/A,,Overcast,320,2013-03-25 14:52:00
10:52 AM,30.0,21.9,72,30.28,10.0,NW,18.4,25.3,N/A,,Overcast,320,2013-03-25 15:52:00
11:52 AM,32.0,19.9,61,30.30,10.0,NW,17.3,27.6,N/A,,Scattered Clouds,320,2013-03-25 16:52:00
11:59 AM,32.0,19.4,60,30.27,10.0,NW,18.4,-,N/A,,Mostly Cloudy,320,2013-03-25 16:59:00
12:09 PM,32.0,19.4,60,30.27,10.0,NW,20.7,26.5,N/A,,Scattered Clouds,310,2013-03-25 17:09:00
12:23 PM,32.0,19.4,60,30.27,10.0,NW,17.3,26.5,N/A,,Mostly Cloudy,310,2013-03-25 17:23:00
12:37 PM,32.0,19.4,60,30.27,10.0,NW,16.1,25.3,N/A,,Scattered Clouds,320,2013-03-25 17:37:00
12:52 PM,32.0,19.9,61,30.31,10.0,NW,19.6,25.3,N/A,,Partly Cloudy,320,2013-03-25 17:52:00
1:52 PM,32.0,19.9,61,30.31,10.0,NW,16.1,21.9,N/A,,Mostly Cloudy,320,2013-03-25 18:52:00
2:52 PM,33.1,19.9,59,30.31,10.0,NW,19.6,25.3,N/A,,Overcast,320,2013-03-25 19:52:00
3:52 PM,32.0,21.0,64,30.30,10.0,NW,13.8,24.2,0.00,Snow,Light Snow,320,2013-03-25 20:52:00
4:52 PM,33.1,21.0,61,30.31,10.0,NW,15.0,23.0,0.00,,Overcast,320,2013-03-25 21:52:00
5:52 PM,32.0,21.0,64,30.32,10.0,NW,17.3,-,0.00,,Overcast,320,2013-03-25 22:52:00
6:52 PM,32.0,21.0,64,30.33,10.0,NW,11.5,-,N/A,,Overcast,310,2013-03-25 23:52:00
7:52 PM,32.0,21.0,64,30.35,10.0,NW,10.4,-,N/A,,Overcast,310,2013-03-26 00:52:00
8:52 PM,30.9,21.9,69,30.35,10.0,NNW,8.1,-,N/A,,Overcast,330,2013-03-26 01:52:00
9:52 PM,30.0,23.0,75,30.37,10.0,NW,8.1,-,N/A,,Mostly Cloudy,320,2013-03-26 02:52:00
10:52 PM,28.9,23.0,78,30.39,10.0,NW,6.9,-,N/A,,Clear,320,2013-03-26 03:52:00
11:52 PM,28.0,21.9,78,30.39,10.0,NNW,8.1,-,N/A,,Clear,330,2013-03-26 04:52:00